Andrews, NC

1:50 AM EST on February 20, 2018 (GMT -0500)
Andrews

Weather History for KRHP - March, 2014

Change the Weather History Date:

Thursday, March 27, 2014

  Actual Average (KMMI) Record (KMMI)
Temperature  
Mean Temperature 42 °F -  
Max Temperature 61 °F 61 °F 75 °F (2017)
Min Temperature 24 °F 36 °F 24 °F (2014)
Degree Days  
Heating Degree Days 22    
Moisture  
Dew Point 22 °F    
Average Humidity 49    
Maximum Humidity 85    
Minimum Humidity 19    
Precipitation  
Precipitation 0.00 in - - ()
Sea Level Pressure  
Sea Level Pressure 30.24 in    
Wind  
Wind Speed 2 mph (SSW)    
Max Wind Speed 15 mph    
Max Gust Speed 23 mph    
Visibility 10 miles    
Events      
Averages and records for this station are not official NWS values.
T = Trace of Precipitation, MM = Missing Value Source: NWS Daily Summary

Daily Weather History Graph

Daily Weather History Graph

Search for Another Location

Airport or City:

Trip Planner

Search our weather history database for the weather conditions in past years. The results will help you decide how hot, cold, wet, or windy it might be!

Date:

Astronomy

Mar. 27, 2014 Rise Set
Actual Time 7:29 AM EDT 7:52 PM EDT
Civil Twilight 7:03 AM EDT 8:18 PM EDT
Nautical Twilight 6:34 AM EDT 8:48 PM EDT
Astronomical Twilight 6:03 AM EDT 9:18 PM EDT
Moon 5:12 AM EDT (3/27) 4:45 PM EDT (3/27)
Length of Visible Light 13h 14m
Length of Day
12h 23m
Waning Crescent, 13% of the Moon is Illuminated
Mar 27
Waning Crescent
Mar 30
New
Apr 7
First Quarter
Apr 15
Full
Apr 22
Last Quarter

Hourly Weather History & Observations

Time (EDT) Temp. Windchill Dew Point Humidity Pressure Visibility Wind Dir Wind Speed Gust Speed Precip Events Conditions
12:15 AM 27.9 °F - 18.7 °F 68% 30.26 in 10.0 mi Calm Calm - N/A   Clear
12:35 AM 26.4 °F - 20.1 °F 77% 30.26 in 10.0 mi Calm Calm - N/A   Clear
12:55 AM 26.8 °F - 19.8 °F 75% 30.27 in 10.0 mi Calm Calm - N/A   Clear
1:15 AM 26.6 °F - 18.5 °F 71% 30.27 in 10.0 mi Calm Calm - N/A   Clear
1:35 AM 25.2 °F - 20.7 °F 83% 30.28 in 10.0 mi Calm Calm - N/A   Clear
1:55 AM 25.5 °F - 20.3 °F 81% 30.28 in 10.0 mi Calm Calm - N/A   Clear
2:15 AM 26.1 °F - 19.2 °F 75% 30.28 in 10.0 mi Calm Calm - N/A   Clear
2:35 AM 26.1 °F 21.9 °F 20.1 °F 78% 30.28 in 10.0 mi NNE 3.5 mph - N/A   Clear
2:55 AM 25.3 °F - 19.2 °F 78% 30.27 in 10.0 mi Calm Calm - N/A   Clear
3:15 AM 26.1 °F - 20.7 °F 80% 30.26 in 10.0 mi Calm Calm - N/A   Clear
3:35 AM 26.4 °F - 19.6 °F 75% 30.26 in 10.0 mi Calm Calm - N/A   Clear
3:55 AM 24.3 °F - 20.5 °F 85% 30.26 in 10.0 mi Calm Calm - N/A   Clear
4:15 AM 25.0 °F - 19.8 °F 81% 30.26 in 10.0 mi Calm Calm - N/A   Clear
4:35 AM 24.3 °F - 19.0 °F 80% 30.24 in 10.0 mi Calm Calm - N/A   Clear
4:55 AM 25.3 °F - 19.8 °F 79% 30.25 in 10.0 mi Calm Calm - N/A   Clear
5:15 AM 25.5 °F - 21.2 °F 84% 30.25 in 10.0 mi Calm Calm - N/A   Clear
5:35 AM 26.1 °F - 20.5 °F 79% 30.25 in 10.0 mi Calm Calm - N/A   Clear
5:55 AM 24.1 °F - 20.3 °F 85% 30.24 in 10.0 mi Calm Calm - N/A   Clear
6:15 AM 25.5 °F - 21.2 °F 84% 30.25 in 10.0 mi Calm Calm - N/A   Clear
6:35 AM 26.1 °F - 22.1 °F 85% 30.27 in 10.0 mi Calm Calm - N/A   Clear
6:55 AM 26.4 °F 22.4 °F 22.5 °F 85% 30.29 in 10.0 mi West 3.5 mph - N/A   Clear
7:15 AM 26.1 °F - 21.2 °F 82% 30.30 in 10.0 mi Calm Calm - N/A   Clear
7:35 AM 26.4 °F - 21.9 °F 83% 30.30 in 10.0 mi Calm Calm - N/A   Scattered Clouds
7:55 AM 27.9 °F - 22.5 °F 80% 30.31 in 10.0 mi Calm Calm - N/A   Scattered Clouds
8:15 AM 27.5 °F - 22.5 °F 81% 30.33 in 10.0 mi Calm Calm - N/A   Clear
8:35 AM 29.1 °F - 23.0 °F 78% 30.33 in 10.0 mi Calm Calm - N/A   Clear
8:55 AM 31.1 °F - 23.0 °F 72% 30.33 in 10.0 mi Calm Calm - N/A   Clear
9:15 AM 32.0 °F - 22.6 °F 68% 30.34 in 10.0 mi Calm Calm - N/A   Clear
9:35 AM 34.7 °F - 23.0 °F 62% 30.33 in 10.0 mi Calm Calm - N/A   Clear
9:55 AM 37.0 °F - 23.9 °F 59% 30.33 in 10.0 mi Calm Calm - N/A   Clear
10:15 AM 39.9 °F - 24.8 °F 55% 30.31 in 10.0 mi Calm Calm - N/A   Scattered Clouds
10:35 AM 42.8 °F 40.1 °F 25.9 °F 51% 30.31 in 10.0 mi West 4.6 mph - N/A   Scattered Clouds
10:55 AM 45.5 °F 42.5 °F 26.1 °F 47% 30.31 in 10.0 mi West 5.8 mph - N/A   Scattered Clouds
11:15 AM 50.5 °F - 17.1 °F 27% 30.31 in 10.0 mi West 9.2 mph - N/A   Scattered Clouds
11:35 AM 51.4 °F - 14.7 °F 23% 30.30 in 10.0 mi South 11.5 mph 17.3 mph N/A   Clear
11:55 AM 52.0 °F - 14.9 °F 23% 30.28 in 10.0 mi SSW 5.8 mph - N/A   Scattered Clouds
12:15 PM 51.8 °F - 15.4 °F 24% 30.29 in 10.0 mi SSW 8.1 mph - N/A   Mostly Cloudy
12:35 PM 54.5 °F - 17.2 °F 23% 30.27 in 10.0 mi SSW 5.8 mph - N/A   Scattered Clouds
12:55 PM 54.7 °F - 17.1 °F 23% 30.26 in 10.0 mi South 6.9 mph 17.3 mph N/A   Clear
1:15 PM 55.9 °F - 17.2 °F 22% 30.26 in 10.0 mi South 9.2 mph 17.3 mph N/A   Clear
1:35 PM 56.5 °F - 15.4 °F 20% 30.25 in 10.0 mi South 4.6 mph 16.1 mph N/A   Clear
1:55 PM 56.8 °F - 17.1 °F 21% 30.24 in 10.0 mi SSW 6.9 mph - N/A   Clear
2:15 PM 58.5 °F - 18.9 °F 21% 30.23 in 10.0 mi WSW 10.4 mph 17.3 mph N/A   Clear
2:35 PM 59.2 °F - 18.9 °F 21% 30.21 in 10.0 mi SSE 9.2 mph 16.1 mph N/A   Clear
2:55 PM 60.1 °F - 18.3 °F 20% 30.21 in 10.0 mi WSW 5.8 mph - N/A   Clear
3:15 PM 60.8 °F - 18.5 °F 19% 30.20 in 10.0 mi SSW 11.5 mph 17.3 mph N/A   Clear
3:35 PM 60.8 °F - 18.3 °F 19% 30.20 in 10.0 mi SW 8.1 mph 16.1 mph N/A   Clear
3:55 PM 60.4 °F - 19.0 °F 20% 30.20 in 10.0 mi SW 8.1 mph 17.3 mph N/A   Scattered Clouds
4:15 PM 61.0 °F - 20.8 °F 21% 30.19 in 10.0 mi SE 10.4 mph 18.4 mph N/A   Scattered Clouds
4:35 PM 61.2 °F - 21.6 °F 22% 30.18 in 10.0 mi South 10.4 mph 18.4 mph N/A   Scattered Clouds
4:55 PM 61.5 °F - 22.8 °F 23% 30.17 in 10.0 mi South 6.9 mph - N/A   Clear
5:15 PM 61.3 °F - 22.8 °F 23% 30.16 in 10.0 mi South 3.5 mph - N/A   Clear
5:35 PM 60.4 °F - 22.1 °F 23% 30.15 in 10.0 mi South 6.9 mph - N/A   Clear
5:55 PM 60.6 °F - 22.8 °F 23% 30.15 in 10.0 mi SSW 15.0 mph - N/A   Clear
6:15 PM 59.4 °F - 21.6 °F 23% 30.14 in 10.0 mi South 9.2 mph 19.6 mph N/A   Clear
6:35 PM 59.0 °F - 22.5 °F 24% 30.15 in 10.0 mi South 5.8 mph 23.0 mph N/A   Clear
6:55 PM 58.1 °F - 22.1 °F 25% 30.15 in 10.0 mi South 3.5 mph - N/A   Clear
7:15 PM 56.1 °F - 23.5 °F 28% 30.17 in 10.0 mi SSW 12.7 mph 18.4 mph N/A   Clear
7:35 PM 53.2 °F - 26.1 °F 35% 30.19 in 10.0 mi West 3.5 mph - N/A   Scattered Clouds
7:55 PM 55.6 °F - 23.5 °F 29% 30.19 in 10.0 mi Calm Calm - N/A   Scattered Clouds
8:15 PM 53.1 °F - 25.3 °F 34% 30.18 in 10.0 mi SSE 4.6 mph - N/A   Mostly Cloudy
8:35 PM 54.5 °F - 24.6 °F 31% 30.18 in 10.0 mi SSE 8.1 mph - N/A   Scattered Clouds
8:55 PM 54.1 °F - 25.5 °F 33% 30.19 in 10.0 mi SE 3.5 mph - N/A   Mostly Cloudy
9:15 PM 55.4 °F - 24.4 °F 30% 30.19 in 10.0 mi Calm Calm - N/A   Scattered Clouds
9:35 PM 53.2 °F - 25.9 °F 35% 30.18 in 10.0 mi NNE 3.5 mph - N/A   Scattered Clouds
9:55 PM 54.5 °F - 25.5 °F 33% 30.18 in 10.0 mi Calm Calm - N/A   Clear
10:15 PM 54.1 °F - 26.6 °F 35% 30.18 in 10.0 mi SSW 3.5 mph - N/A   Scattered Clouds
10:35 PM 52.3 °F - 27.9 °F 39% 30.18 in 10.0 mi NW 3.5 mph - N/A   Mostly Cloudy
10:55 PM 54.5 °F - 26.6 °F 34% 30.17 in 10.0 mi Calm Calm - N/A   Mostly Cloudy
11:15 PM 52.9 °F - 28.4 °F 39% 30.18 in 10.0 mi South 5.8 mph - N/A   Overcast
11:35 PM 54.5 °F - 28.2 °F 36% 30.17 in 10.0 mi Calm Calm - N/A   Overcast
11:55 PM 54.5 °F - 30.0 °F 39% 30.18 in 10.0 mi SSW 4.6 mph 17.3 mph N/A   Mostly Cloudy